Location: Seattle
(47.6064°N, 122.3308°W)
Time: 08:39:23
(UTC-07:00)

Courier 1B - Visible Passes

Search period start: 12 May 2021 00:00
Search period end: 22 May 2021 00:00
Orbit: 962 x 1209 km, 28.3° (Epoch: 11 May)

Date Brightness Start Highest point End Pass type
(mag) Time Alt. Az. Time Alt. Az. Time Alt. Az.
13 May 9.6 04:27:15 10° S 04:30:39 13° SSE 04:34:06 10° SE visible
14 May 9.7 03:35:19 10° S 03:37:08 11° SSE 03:39:08 10° SE visible
15 May 9.5 04:32:03 10° SSW 04:36:20 16° S 04:40:42 10° SE visible
16 May 9.4 03:40:49 13° S 03:42:48 14° SSE 03:46:33 10° SE visible
17 May 9.6 02:50:10 12° SSE 02:50:10 12° SSE 02:51:59 10° SE visible
17 May 9.4 04:37:34 10° SW 04:42:04 17° S 04:46:40 10° SE visible
18 May 9.3 03:46:25 14° SSW 03:48:30 16° S 03:52:50 10° SE visible
19 May 9.4 02:55:49 14° SSE 02:55:49 14° SSE 02:58:49 10° SE visible
19 May 9.4 04:43:35 10° SW 04:47:48 16° S 04:52:07 10° SSE visible
20 May 9.2 03:52:10 14° SSW 03:54:15 16° S 03:58:33 10° SE visible
21 May 9.3 03:01:43 15° SSE 03:01:43 15° SSE 03:04:50 10° SE visible
